Date String (YYYY-MM-DD hh:mm:ss) UTC,Instrument flags,Ambient pressure (hPa),Sample flow (lpm),Bypass flow (lpm),Sample temperature (°C),Ambient temperature (°C),ASC tube jacket temperature (°C),LED temperature (°C),Box temperature (°C),Sample RH (%),Span deviation,Mass concentration (μg/m³),Mass concentration (μg/m³),Mass concentration (μg/m³)
DateTimeUTC,F1_M11,P_M11,Q1_M11,Q2_M11,T1_M11,T2_M11,T3_M11,T4_M11,T5_M11,U1_M11,ZSPAN_M11,X0_M11,X2_M11,X1_M11
2022-03-17 01:00:00,,0821.9,5.00,0.00,25.0,24.3,00.0,33.9,26.8,20.5,0000.0,0008.89,0003.97,0003.39
2022-03-17 01:01:00,,0822.0,5.00,0.00,25.0,24.3,00.0,33.9,26.8,20.5,0000.0,0008.56,0004.00,0003.39
2022-03-17 01:02:00,,0822.0,5.01,0.00,25.0,24.3,00.0,33.9,26.9,20.4,0000.0,0008.59,0003.99,0003.39
2022-03-17 01:03:00,,0822.0,4.99,0.00,25.0,24.3,00.0,33.9,26.9,20.4,0000.0,0008.56,0003.97,0003.37
2022-03-17 01:04:00,,0822.1,4.99,0.00,25.0,24.3,00.0,33.9,26.9,20.4,0000.0,0008.44,0003.93,0003.36
2022-03-17 01:05:00,,0822.1,5.01,0.00,25.0,24.3,00.0,33.9,26.9,20.4,0000.0,0008.04,0003.92,0003.35
2022-03-17 01:06:00,,0822.1,5.00,0.00,25.0,24.3,00.0,33.9,26.9,20.4,0000.0,0007.69,0003.94,0003.34
2022-03-17 01:07:00,,0822.1,4.99,0.00,25.0,24.3,00.0,33.9,26.9,20.4,0000.0,0007.65,0003.95,0003.34
2022-03-17 01:08:00,,0822.1,5.00,0.00,25.1,24.3,00.0,33.9,26.9,20.4,0000.0,0007.55,0003.99,0003.36
2022-03-17 01:09:00,,0822.1,5.01,0.00,25.1,24.3,00.0,33.9,26.9,20.4,0000.0,0007.33,0004.00,0003.36
2022-03-17 01:10:00,,0822.1,5.00,0.00,25.1,24.3,00.0,33.9,26.9,20.4,0000.0,0007.34,0004.01,0003.36
2022-03-17 01:11:00,,0822.1,5.00,0.00,25.1,24.3,00.0,34.0,26.9,20.4,0000.0,0007.39,0004.04,0003.36
2022-03-17 01:12:00,,0822.1,5.00,0.00,25.1,24.4,00.0,34.0,26.9,20.3,0000.0,0007.43,0004.04,0003.36
2022-03-17 01:13:00,,0822.1,5.00,0.00,25.1,24.4,00.0,34.0,26.9,20.3,0000.0,0007.74,0004.04,0003.37
2022-03-17 01:14:00,,0822.1,5.01,0.00,25.1,24.3,00.0,34.0,26.9,20.4,0000.0,0007.83,0004.03,0003.38
2022-03-17 01:15:00,,0822.1,5.00,0.00,25.1,24.4,00.0,34.0,26.9,20.4,0000.0,0008.42,0004.07,0003.40
2022-03-17 01:16:00,,0822.1,5.00,0.00,25.1,24.4,00.0,34.0,26.9,20.4,0000.0,0009.11,0004.10,0003.40
2022-03-17 01:17:00,,0822.1,5.00,0.00,25.1,24.4,00.0,34.0,26.9,20.5,0000.0,0009.60,0004.11,0003.40
2022-03-17 01:18:00,,0822.1,5.00,0.00,25.1,24.4,00.0,34.0,26.9,20.6,0000.0,0009.84,0004.08,0003.40
2022-03-17 01:19:00,,0822.1,5.00,0.00,25.1,24.4,00.0,34.0,26.9,20.5,0000.0,0010.02,0004.04,0003.38
2022-03-17 01:20:00,,0822.1,5.00,0.00,25.1,24.4,00.0,34.0,26.9,20.5,0000.0,0009.97,0004.01,0003.37
2022-03-17 01:21:00,,0822.1,5.00,0.00,25.1,24.4,00.0,34.0,26.9,20.6,0000.0,0009.92,0003.99,0003.35
2022-03-17 01:22:00,,0822.1,5.00,0.00,25.1,24.4,00.0,34.0,26.9,20.5,0000.0,0009.78,0003.95,0003.34
2022-03-17 01:23:00,,0822.1,4.98,0.00,25.1,24.4,00.0,34.0,26.9,20.5,0000.0,0009.58,0003.90,0003.30
2022-03-17 01:24:00,,0822.1,5.00,0.00,25.1,24.4,00.0,34.0,26.9,20.4,0000.0,0009.19,0003.84,0003.26
2022-03-17 01:25:00,,0822.1,5.00,0.00,25.1,24.4,00.0,34.0,26.9,20.4,0000.0,0008.93,0003.76,0003.20
2022-03-17 01:26:00,,0822.1,5.01,0.00,25.1,24.4,00.0,34.0,26.9,20.3,0000.0,0008.38,0003.63,0003.08
2022-03-17 01:27:00,,0822.2,4.99,0.00,25.1,24.3,00.0,34.0,26.9,20.3,0000.0,0007.55,0003.50,0002.90
2022-03-17 01:28:00,,0822.2,5.00,0.00,25.1,24.3,00.0,34.0,26.9,20.2,0000.0,0006.53,0003.36,0002.71
2022-03-17 01:29:00,,0822.2,5.00,0.00,25.1,24.3,00.0,34.0,26.9,20.2,0000.0,0005.88,0003.26,0002.51
2022-03-17 01:30:00,,0822.2,5.00,0.00,25.1,24.3,00.0,34.0,26.9,20.2,0000.0,0005.14,0003.19,0002.35
2022-03-17 01:31:00,,0822.3,5.00,0.00,25.1,24.3,00.0,34.0,26.9,20.3,0000.0,0004.91,0003.06,0002.17
2022-03-17 01:32:00,,0822.3,5.00,0.00,25.1,24.3,00.0,34.0,26.9,20.4,0000.0,0004.77,0002.89,0002.00
2022-03-17 01:33:00,,0822.3,5.01,0.00,25.1,24.3,00.0,34.0,26.9,20.5,0000.0,0004.61,0002.70,0001.83
2022-03-17 01:34:00,,0822.3,5.00,0.00,25.1,24.3,00.0,34.0,26.9,20.4,0000.0,0004.42,0002.53,0001.69
2022-03-17 01:35:00,,0822.4,5.00,0.00,25.1,24.3,00.0,34.0,26.9,20.4,0000.0,0004.18,0002.36,0001.54
2022-03-17 01:36:00,,0822.3,5.00,0.00,25.1,24.3,00.0,34.0,26.9,20.4,0000.0,0004.65,0002.24,0001.42
2022-03-17 01:37:00,,0822.4,5.00,0.00,25.1,24.3,00.0,34.0,26.9,20.4,0000.0,0004.59,0002.20,0001.35
2022-03-17 01:38:00,,0822.3,5.00,0.00,25.1,24.3,00.0,34.0,26.9,20.3,0000.0,0004.44,0002.16,0001.30
2022-03-17 01:39:00,,0822.3,5.00,0.00,25.1,24.3,00.0,34.0,26.9,20.3,0000.0,0004.52,0002.18,0001.28
2022-03-17 01:40:00,,0822.3,4.99,0.00,25.1,24.3,00.0,34.0,26.9,20.3,0000.0,0004.70,0002.20,0001.26
2022-03-17 01:41:00,,0822.3,5.00,0.00,25.1,24.3,00.0,34.0,26.9,20.4,0000.0,0004.90,0002.23,0001.22
2022-03-17 01:42:00,,0822.3,5.00,0.00,25.1,24.3,00.0,34.0,26.9,20.3,0000.0,0005.05,0002.22,0001.18
2022-03-17 01:43:00,,0822.4,5.00,0.00,25.1,24.3,00.0,34.0,26.9,20.3,0000.0,0005.49,0002.11,0001.12
2022-03-17 01:44:00,,0822.3,5.00,0.00,25.1,24.3,00.0,34.0,26.9,20.3,0000.0,0005.76,0002.05,0001.07
2022-03-17 01:45:00,,0822.3,5.01,0.00,25.1,24.3,00.0,34.0,26.9,20.3,0000.0,0005.95,0002.05,0001.03
2022-03-17 01:46:00,,0822.3,5.00,0.00,25.1,24.3,00.0,34.0,26.9,20.4,0000.0,0006.86,0002.03,0001.01
2022-03-17 01:47:00,,0822.4,5.00,0.00,25.1,24.3,00.0,34.0,26.9,20.4,0000.0,0006.73,0002.02,0000.99
2022-03-17 01:48:00,,0822.3,5.00,0.00,25.1,24.3,00.0,34.0,26.9,20.4,0000.0,0006.63,0002.03,0000.98
2022-03-17 01:49:00,,0822.3,4.99,0.00,25.1,24.3,00.0,34.0,26.9,20.4,0000.0,0006.61,0002.00,0000.97
2022-03-17 01:50:00,,0822.3,5.00,0.00,25.1,24.3,00.0,34.0,26.9,20.4,0000.0,0006.52,0001.95,0000.96
2022-03-17 01:51:00,,0822.4,5.00,0.00,25.1,24.3,00.0,34.0,26.9,20.5,0000.0,0006.41,0001.94,0000.96
2022-03-17 01:52:00,,0822.3,5.00,0.00,25.1,24.3,00.0,34.0,26.9,20.5,0000.0,0006.36,0001.83,0000.96
2022-03-17 01:53:00,,0822.4,5.02,0.00,25.1,24.2,00.0,34.0,26.9,20.5,0000.0,0006.36,0001.83,0000.98
2022-03-17 01:54:00,,0822.4,4.99,0.00,25.0,24.2,00.0,34.0,26.9,20.5,0000.0,0006.53,0002.00,0001.01
2022-03-17 01:55:00,,0822.4,5.00,0.00,25.0,24.2,00.0,34.0,26.9,20.5,0000.0,0006.09,0002.12,0001.07
2022-03-17 01:56:00,,0822.5,5.01,0.00,25.0,24.2,00.0,34.0,26.9,20.4,0000.0,0006.16,0002.22,0001.13
2022-03-17 01:57:00,,0822.5,5.00,0.00,25.0,24.2,00.0,34.0,26.9,20.4,0000.0,0005.76,0002.38,0001.20
2022-03-17 01:58:00,,0822.5,4.99,0.00,25.0,24.2,00.0,34.0,26.9,20.4,0000.0,0005.63,0002.52,0001.26
2022-03-17 01:59:00,,0822.5,5.01,0.00,25.0,24.2,00.0,34.0,26.8,20.4,0000.0,0005.88,0002.64,0001.32
